• Em Portugal
  • Lista de países
  • Para 7 dias
  • Temperatura da água
  • Mapas de satélite
  • Mapa do tempo
  • Widgets de tempo
  • user-avatar
    Iniciar Sessão

    Previsão horária em Avinischi

    Hoje, 23 Junho, Sábado

    Tempo Temperatura Precipitação Vento Pressão Humidade
    00:00 +10°C° 0 mm 2 m/s 752 mmHg 84%
    01:00 +9°C° 0 mm 2 m/s 752 mmHg 90%
    02:00 +9°C° 0 mm 1 m/s 753 mmHg 95%
    03:00 +10°C° 0 mm 1 m/s 753 mmHg 93%
    04:00 +10°C° 0 mm 1 m/s 753 mmHg 91%
    05:00 +11°C° 0 mm 1 m/s 753 mmHg 89%
    06:00 +13°C° 0 mm 1 m/s 753 mmHg 81%
    07:00 +14°C° 0 mm 1 m/s 753 mmHg 72%
    08:00 +16°C° 0 mm 1 m/s 753 mmHg 64%
    09:00 +18°C° 0 mm 1 m/s 753 mmHg 59%
    10:00 +19°C° 0 mm 1 m/s 753 mmHg 54%
    11:00 +21°C° 0 mm 1 m/s 753 mmHg 49%
    12:00 +19°C° 0,1 mm 2 m/s 753 mmHg 55%
    13:00 +18°C° 0,1 mm 2 m/s 752 mmHg 61%
    14:00 +17°C° 0,1 mm 2 m/s 752 mmHg 67%
    15:00 +17°C° 0,1 mm 2 m/s 752 mmHg 71%
    16:00 +17°C° 0,1 mm 2 m/s 752 mmHg 74%
    17:00 +16°C° 0,1 mm 1 m/s 752 mmHg 78%
    18:00 +15°C° 0,1 mm 1 m/s 751 mmHg 82%
    19:00 +15°C° 0,1 mm 1 m/s 751 mmHg 86%
    20:00 +14°C° 0,1 mm 1 m/s 751 mmHg 91%
    21:00 +14°C° 0,2 mm 1 m/s 751 mmHg 92%
    22:00 +13°C° 0,2 mm 1 m/s 750 mmHg 93%
    23:00 +13°C° 0,2 mm 1 m/s 750 mmHg 94%

    Amanhã, 24 Junho, Domingo

    Tempo Temperatura Precipitação Vento Pressão Humidade
    00:00 +12°C° 0,5 mm 1 m/s 749 mmHg 95%
    01:00 +12°C° 0,5 mm 2 m/s 749 mmHg 95%
    02:00 +12°C° 0,5 mm 2 m/s 748 mmHg 95%
    03:00 +11°C° 0,5 mm 3 m/s 748 mmHg 96%
    04:00 +11°C° 0,5 mm 3 m/s 747 mmHg 96%
    05:00 +11°C° 0,5 mm 4 m/s 746 mmHg 96%
    06:00 +11°C° 0,3 mm 4 m/s 746 mmHg 96%
    07:00 +11°C° 0,3 mm 4 m/s 745 mmHg 96%
    08:00 +10°C° 0,3 mm 5 m/s 744 mmHg 96%
    09:00 +11°C° 1,2 mm 4 m/s 744 mmHg 96%
    10:00 +12°C° 1,2 mm 4 m/s 744 mmHg 96%
    11:00 +12°C° 1,2 mm 4 m/s 744 mmHg 96%
    12:00 +12°C° 2 mm 4 m/s 744 mmHg 96%
    13:00 +12°C° 2 mm 4 m/s 745 mmHg 96%
    14:00 +12°C° 2 mm 4 m/s 745 mmHg 96%
    15:00 +11°C° 0,7 mm 4 m/s 745 mmHg 96%
    16:00 +11°C° 0,7 mm 4 m/s 746 mmHg 96%
    17:00 +10°C° 0,7 mm 5 m/s 746 mmHg 96%
    18:00 +9°C° 0,4 mm 5 m/s 746 mmHg 95%
    19:00 +9°C° 0,4 mm 5 m/s 747 mmHg 95%
    20:00 +9°C° 0,4 mm 5 m/s 747 mmHg 95%
    21:00 +9°C° 0,1 mm 5 m/s 748 mmHg 95%
    22:00 +9°C° 0,1 mm 5 m/s 748 mmHg 94%
    23:00 +9°C° 0,1 mm 5 m/s 749 mmHg 94%

    Depois de amanhã, 25 Junho, Segunda-feira

    Tempo Temperatura Precipitação Vento Pressão Humidade
    00:00 +9°C° 0 mm 5 m/s 749 mmHg 94%
    01:00 +8°C° 0 mm 4 m/s 750 mmHg 95%
    02:00 +8°C° 0 mm 4 m/s 750 mmHg 95%
    03:00 +8°C° 0 mm 4 m/s 750 mmHg 94%
    04:00 +8°C° 0 mm 4 m/s 750 mmHg 93%
    05:00 +10°C° 0 mm 4 m/s 751 mmHg 93%
    06:00 +11°C° 0 mm 4 m/s 751 mmHg 88%
    07:00 +12°C° 0 mm 4 m/s 751 mmHg 83%
    08:00 +13°C° 0 mm 4 m/s 751 mmHg 79%
    09:00 +14°C° 0,1 mm 5 m/s 751 mmHg 75%
    10:00 +15°C° 0,1 mm 5 m/s 752 mmHg 71%
    11:00 +15°C° 0,1 mm 5 m/s 752 mmHg 67%
    12:00 +16°C° 0,2 mm 5 m/s 752 mmHg 69%
    13:00 +16°C° 0,2 mm 5 m/s 752 mmHg 70%
    14:00 +16°C° 0,2 mm 5 m/s 752 mmHg 71%
    15:00 +15°C° 0,2 mm 4 m/s 752 mmHg 75%
    16:00 +14°C° 0,2 mm 4 m/s 752 mmHg 79%
    17:00 +14°C° 0,2 mm 3 m/s 753 mmHg 84%
    18:00 +13°C° 0,1 mm 3 m/s 753 mmHg 86%
    19:00 +14°C° 0,1 mm 2 m/s 753 mmHg 89%
    20:00 +13°C° 0,1 mm 2 m/s 753 mmHg 92%
    21:00 +13°C° 0 mm 2 m/s 753 mmHg 94%
    22:00 +12°C° 0 mm 2 m/s 754 mmHg 96%
    23:00 +10°C° 0 mm 2 m/s 754 mmHg 97%

    26 Junho, Terça-feira

    Tempo Temperatura Precipitação Vento Pressão Humidade
    00:00 +10°C° 0,2 mm 2 m/s 754 mmHg 97%
    01:00 +10°C° 0,2 mm 2 m/s 754 mmHg 97%
    02:00 +10°C° 0,2 mm 2 m/s 754 mmHg 98%
    03:00 +10°C° 0,1 mm 2 m/s 754 mmHg 97%
    04:00 +12°C° 0,1 mm 2 m/s 755 mmHg 97%
    05:00 +12°C° 0,1 mm 2 m/s 755 mmHg 97%
    06:00 +12°C° 0,3 mm 2 m/s 755 mmHg 97%
    07:00 +13°C° 0,3 mm 2 m/s 755 mmHg 96%
    08:00 +13°C° 0,3 mm 2 m/s 755 mmHg 95%
    09:00 +14°C° 0,2 mm 2 m/s 755 mmHg 91%
    10:00 +15°C° 0,2 mm 2 m/s 756 mmHg 88%
    11:00 +16°C° 0,2 mm 2 m/s 756 mmHg 84%
    12:00 +18°C° 0,2 mm 1 m/s 756 mmHg 78%
    13:00 +20°C° 0,2 mm 1 m/s 756 mmHg 71%
    14:00 +21°C° 0,2 mm 1 m/s 756 mmHg 65%
    15:00 +21°C° 0,2 mm 1 m/s 756 mmHg 66%
    16:00 +21°C° 0,2 mm 1 m/s 756 mmHg 68%
    17:00 +19°C° 0,2 mm 2 m/s 756 mmHg 69%
    18:00 +18°C° 0,2 mm 2 m/s 756 mmHg 76%
    19:00 +17°C° 0,2 mm 2 m/s 757 mmHg 82%
    20:00 +16°C° 0,2 mm 2 m/s 757 mmHg 89%
    21:00 +15°C° 0 mm 2 m/s 757 mmHg 91%
    22:00 +14°C° 0 mm 2 m/s 758 mmHg 94%
    23:00 +13°C° 0 mm 2 m/s 758 mmHg 96%

    27 Junho, Quarta-feira

    Tempo Temperatura Precipitação Vento Pressão Humidade
    00:00 +12°C° 0 mm 2 m/s 758 mmHg 97%
    01:00 +12°C° 0 mm 2 m/s 758 mmHg 97%
    02:00 +10°C° 0 mm 2 m/s 758 mmHg 97%
    03:00 +12°C° 0 mm 2 m/s 759 mmHg 97%
    04:00 +12°C° 0 mm 2 m/s 759 mmHg 97%
    05:00 +12°C° 0 mm 2 m/s 759 mmHg 96%
    06:00 +14°C° 0 mm 2 m/s 759 mmHg 90%
    07:00 +16°C° 0 mm 2 m/s 759 mmHg 84%
    08:00 +18°C° 0 mm 2 m/s 759 mmHg 78%
    09:00 +19°C° 0,1 mm 3 m/s 759 mmHg 71%
    10:00 +21°C° 0,1 mm 3 m/s 759 mmHg 63%
    11:00 +22°C° 0,1 mm 3 m/s 759 mmHg 56%
    12:00 +24°C° 0,3 mm 3 m/s 759 mmHg 56%
    13:00 +24°C° 0,3 mm 3 m/s 759 mmHg 57%
    14:00 +23°C° 0,3 mm 4 m/s 758 mmHg 58%
    15:00 +24°C° 0,3 mm 3 m/s 758 mmHg 62%
    16:00 +22°C° 0,3 mm 3 m/s 758 mmHg 67%
    17:00 +22°C° 0,3 mm 3 m/s 758 mmHg 72%
    18:00 +21°C° 0,2 mm 2 m/s 759 mmHg 77%
    19:00 +19°C° 0,2 mm 2 m/s 759 mmHg 81%
    20:00 +19°C° 0,2 mm 1 m/s 759 mmHg 86%
    21:00 +17°C° 0 mm 2 m/s 759 mmHg 88%
    22:00 +16°C° 0 mm 2 m/s 759 mmHg 90%
    23:00 +15°C° 0 mm 2 m/s 760 mmHg 92%

    28 Junho, Quinta-feira

    Tempo Temperatura Precipitação Vento Pressão Humidade
    00:00 +15°C° 0 mm 2 m/s 760 mmHg 93%
    01:00 +14°C° 0 mm 2 m/s 760 mmHg 94%
    02:00 +14°C° 0 mm 2 m/s 760 mmHg 94%
    03:00 +14°C° 0 mm 2 m/s 760 mmHg 93%
    04:00 +14°C° 0 mm 2 m/s 760 mmHg 92%
    05:00 +14°C° 0 mm 2 m/s 760 mmHg 90%
    06:00 +16°C° 0 mm 2 m/s 760 mmHg 82%
    07:00 +18°C° 0 mm 3 m/s 760 mmHg 73%
    08:00 +20°C° 0 mm 3 m/s 760 mmHg 65%
    09:00 +21°C° 0 mm 3 m/s 760 mmHg 57%
    10:00 +23°C° 0 mm 4 m/s 760 mmHg 50%
    11:00 +26°C° 0 mm 4 m/s 760 mmHg 43%
    12:00 +26°C° 0 mm 4 m/s 759 mmHg 42%
    13:00 +27°C° 0 mm 4 m/s 759 mmHg 40%
    14:00 +27°C° 0 mm 4 m/s 759 mmHg 39%
    15:00 +27°C° 0 mm 4 m/s 759 mmHg 44%
    16:00 +26°C° 0 mm 4 m/s 758 mmHg 48%
    17:00 +25°C° 0 mm 3 m/s 758 mmHg 53%
    18:00 +24°C° 0 mm 3 m/s 758 mmHg 59%
    19:00 +21°C° 0 mm 3 m/s 758 mmHg 65%
    20:00 +20°C° 0 mm 2 m/s 758 mmHg 71%
    21:00 +18°C° 0 mm 2 m/s 758 mmHg 72%
    22:00 +17°C° 0 mm 2 m/s 759 mmHg 74%
    23:00 +15°C° 0 mm 2 m/s 759 mmHg 76%
    Mostrar mais